Location: 3 Angels Observatory
(30.5437°N, 88.5068°W)
Time: 22:43:17
(UTC-05:00)

Oscar 19 - Visible Passes

Search period start: 25 June 2017 00:00
Search period end: 05 July 2017 00:00
Orbit: 773 x 791 km, 98.6° (Epoch: 25 June)

Date Brightness Start Highest point End Pass type
(mag) Time Alt. Az. Time Alt. Az. Time Alt. Az.
25 Jun 12.8 01:30:11 10° NE 01:32:10 18° ENE 01:32:10 18° ENE visible
25 Jun 11.8 03:08:54 10° N 03:12:43 31° NW 03:12:43 31° NW visible
26 Jun 11.3 02:36:38 10° N 02:40:29 50° NNW 02:40:29 50° NNW visible
27 Jun 11.9 02:04:55 10° NNE 02:08:15 37° NE 02:08:15 37° NE visible
27 Jun 12.6 03:46:11 10° NW 03:48:43 14° WNW 03:48:48 14° WNW visible
28 Jun 12.7 01:33:51 10° NE 01:36:00 19° ENE 01:36:00 19° ENE visible
28 Jun 11.9 03:12:50 10° NNW 03:16:34 28° WNW 03:16:34 28° WNW visible
29 Jun 11.3 02:40:30 10° N 02:44:19 48° NNW 02:44:19 48° NNW visible
30 Jun 11.8 02:08:43 10° NNE 02:12:05 39° NE 02:12:05 39° NE visible
30 Jun 12.7 03:50:22 10° NW 03:52:31 13° WNW 03:52:38 13° WNW visible
01 Jul 12.7 01:37:33 10° NE 01:39:50 21° ENE 01:39:50 21° ENE visible
01 Jul 12.0 03:16:48 10° NNW 03:20:24 26° WNW 03:20:24 26° WNW visible
02 Jul 11.4 02:44:22 10° N 02:48:09 45° NNW 02:48:09 45° NNW visible
03 Jul 11.7 02:12:31 10° NNE 02:15:54 41° NE 02:15:54 41° NE visible
03 Jul 12.8 03:54:40 10° NW 03:56:18 11° WNW 03:56:27 11° WNW visible
04 Jul 12.6 01:41:16 10° NE 01:43:39 22° ENE 01:43:39 22° ENE visible
04 Jul 12.1 03:20:45 10° NNW 03:24:13 24° WNW 03:24:13 24° WNW visible
